sim
Sign-in with your pilot id or email,
or register
Callsign
Passwort

Schedule Details

Flight Number: RYR8968 (1)
Departure: Athens Eleftherios Venizelos (LGAV) at 05:05
Arrival: Thessaloniki International Airport (LGTS) at 06:05
Route: Ryanair Passenger Schedule. Enter filed route here before submitting Pirep.

Weather Information
Getting current METAR information for LGAV 211620Z 02005KT 9999 FEW030 12/07 Q1023 NOSIG
Getting current METAR information for LGTS 211620Z 36006KT CAVOK 14/00 Q1022 NOSIG

Schedule Frequency

Route Map